Time,TemperatureF,DewpointF,PressureIn,WindDirection,WindDirectionDegrees,WindSpeedMPH,WindSpeedGustMPH,Humidity,HourlyPrecipIn,Conditions,Clouds,dailyrainin,SolarRadiationWatts/m^2,SoftwareType,DateUTC
2013-03-06 00:00:00,40.9,20.1,30.33,North,355,0.0,0.0,43,0.00,,,0.00,0.00,VWS V14.00,2013-03-06 06:00:00,
2013-03-06 00:05:00,40.6,19.9,30.32,North,355,0.0,0.0,43,0.00,,,0.00,0.00,VWS V14.00,2013-03-06 06:05:00,
2013-03-06 00:10:00,40.2,20.0,30.33,North,355,0.0,0.0,44,0.00,,,0.00,0.00,VWS V14.00,2013-03-06 06:10:00,
2013-03-06 00:15:00,39.7,20.6,30.33,North,355,0.0,0.0,46,0.00,,,0.00,0.00,VWS V14.00,2013-03-06 06:15:00,
2013-03-06 00:20:00,39.4,20.9,30.33,North,355,0.0,0.0,47,0.00,,,0.00,0.00,VWS V14.00,2013-03-06 06:20:00,
2013-03-06 00:25:00,39.0,21.0,30.33,North,355,0.0,0.0,48,0.00,,,0.00,0.00,VWS V14.00,2013-03-06 06:25:00,
2013-03-06 00:30:00,38.4,20.4,30.33,North,355,0.0,0.0,48,0.00,,,0.00,0.00,VWS V14.00,2013-03-06 06:30:00,
2013-03-06 00:35:00,38.1,21.1,30.33,North,355,0.0,0.0,50,0.00,,,0.00,0.00,VWS V14.00,2013-03-06 06:35:00,
2013-03-06 00:40:00,37.7,21.2,30.33,North,355,0.0,0.0,51,0.00,,,0.00,0.00,VWS V14.00,2013-03-06 06:40:00,
2013-03-06 00:45:00,37.4,20.9,30.33,North,355,0.0,0.0,51,0.00,,,0.00,0.00,VWS V14.00,2013-03-06 06:45:00,
2013-03-06 00:50:00,37.1,20.7,30.33,North,355,0.0,0.0,51,0.00,,,0.00,0.00,VWS V14.00,2013-03-06 06:50:00,
2013-03-06 00:55:00,36.8,20.8,30.34,North,355,0.0,0.0,52,0.00,,,0.00,0.00,VWS V14.00,2013-03-06 06:55:00,
2013-03-06 01:00:00,36.3,21.3,30.34,North,355,0.0,0.0,54,0.00,,,0.00,0.00,VWS V14.00,2013-03-06 07:00:00,
2013-03-06 01:05:00,36.0,21.0,30.34,North,355,0.0,0.0,54,0.00,,,0.00,0.00,VWS V14.00,2013-03-06 07:05:00,
2013-03-06 01:10:00,35.8,21.6,30.34,North,355,0.0,0.0,56,0.00,,,0.00,0.00,VWS V14.00,2013-03-06 07:10:00,
2013-03-06 01:15:00,35.6,21.9,30.34,North,355,0.0,0.0,57,0.00,,,0.00,0.00,VWS V14.00,2013-03-06 07:15:00,
2013-03-06 01:20:00,35.4,21.7,30.34,North,355,0.0,0.0,57,0.00,,,0.00,0.00,VWS V14.00,2013-03-06 07:20:00,
2013-03-06 01:25:00,35.2,21.5,30.34,North,355,0.0,0.0,57,0.00,,,0.00,0.00,VWS V14.00,2013-03-06 07:25:00,
2013-03-06 01:30:00,35.1,21.4,30.34,North,355,0.0,0.0,57,0.00,,,0.00,0.00,VWS V14.00,2013-03-06 07:30:00,
2013-03-06 01:35:00,34.9,21.6,30.34,North,355,0.0,0.0,58,0.00,,,0.00,0.00,VWS V14.00,2013-03-06 07:35:00,
2013-03-06 01:40:00,34.7,21.9,30.34,North,355,0.0,0.0,59,0.00,,,0.00,0.00,VWS V14.00,2013-03-06 07:40:00,
2013-03-06 01:45:00,34.6,21.8,30.34,North,355,0.0,0.0,59,0.00,,,0.00,0.00,VWS V14.00,2013-03-06 07:45:00,
2013-03-06 01:50:00,34.4,21.6,30.34,North,355,0.0,0.0,59,0.00,,,0.00,0.00,VWS V14.00,2013-03-06 07:50:00,
2013-03-06 01:55:00,34.3,21.9,30.35,North,355,0.0,0.0,60,0.00,,,0.00,0.00,VWS V14.00,2013-03-06 07:55:00,
2013-03-06 02:00:00,34.1,21.3,30.35,North,355,0.0,0.0,59,0.00,,,0.00,0.00,VWS V14.00,2013-03-06 08:00:00,
2013-03-06 02:05:00,33.9,21.1,30.35,North,355,0.0,0.0,59,0.00,,,0.00,0.00,VWS V14.00,2013-03-06 08:05:00,
2013-03-06 02:10:00,33.7,20.9,30.34,North,355,0.0,0.0,59,0.00,,,0.00,0.00,VWS V14.00,2013-03-06 08:10:00,
2013-03-06 02:15:00,33.4,20.6,30.34,North,355,0.0,0.0,59,0.00,,,0.00,0.00,VWS V14.00,2013-03-06 08:15:00,
2013-03-06 02:20:00,33.2,20.4,30.34,North,355,0.0,0.0,59,0.00,,,0.00,0.00,VWS V14.00,2013-03-06 08:20:00,
2013-03-06 02:25:00,33.0,20.2,30.34,North,355,0.0,0.0,59,0.00,,,0.00,0.00,VWS V14.00,2013-03-06 08:25:00,
2013-03-06 02:30:00,32.8,20.1,30.34,North,355,0.0,0.0,59,0.00,,,0.00,0.00,VWS V14.00,2013-03-06 08:30:00,
2013-03-06 02:35:00,32.6,20.3,30.34,North,355,0.0,0.0,60,0.00,,,0.00,0.00,VWS V14.00,2013-03-06 08:35:00,
2013-03-06 02:40:00,32.4,20.1,30.33,North,355,0.0,0.0,60,0.00,,,0.00,0.00,VWS V14.00,2013-03-06 08:40:00,
2013-03-06 02:45:00,32.2,20.3,30.33,North,355,0.0,0.0,61,0.00,,,0.00,0.00,VWS V14.00,2013-03-06 08:45:00,
2013-03-06 02:50:00,32.0,20.5,30.33,North,355,0.0,0.0,62,0.00,,,0.00,0.00,VWS V14.00,2013-03-06 08:50:00,
2013-03-06 02:55:00,31.9,20.8,30.33,North,355,0.0,0.0,63,0.00,,,0.00,0.00,VWS V14.00,2013-03-06 08:55:00,
2013-03-06 03:00:00,31.8,21.0,30.33,North,355,0.0,0.0,64,0.00,,,0.00,0.00,VWS V14.00,2013-03-06 09:00:00,
2013-03-06 03:05:00,31.6,20.5,30.33,North,355,0.0,0.0,63,0.00,,,0.00,0.00,VWS V14.00,2013-03-06 09:05:00,
2013-03-06 03:10:00,31.4,20.3,30.33,North,355,0.0,0.0,63,0.00,,,0.00,0.00,VWS V14.00,2013-03-06 09:10:00,
2013-03-06 03:15:00,31.3,20.5,30.33,North,355,0.0,0.0,64,0.00,,,0.00,0.00,VWS V14.00,2013-03-06 09:15:00,
2013-03-06 03:20:00,31.1,20.4,30.33,North,355,0.0,0.0,64,0.00,,,0.00,0.00,VWS V14.00,2013-03-06 09:20:00,
2013-03-06 03:25:00,30.9,20.5,30.33,North,355,0.0,0.0,65,0.00,,,0.00,0.00,VWS V14.00,2013-03-06 09:25:00,
2013-03-06 03:30:00,30.7,20.7,30.33,North,355,0.0,0.0,66,0.00,,,0.00,0.00,VWS V14.00,2013-03-06 09:30:00,
2013-03-06 03:35:00,30.6,21.0,30.33,North,355,0.0,0.0,67,0.00,,,0.00,0.00,VWS V14.00,2013-03-06 09:35:00,
2013-03-06 03:40:00,30.3,21.0,30.33,North,355,0.0,0.0,68,0.00,,,0.00,0.00,VWS V14.00,2013-03-06 09:40:00,
2013-03-06 03:44:00,30.2,21.3,30.33,North,355,0.0,0.0,69,0.00,,,0.00,0.00,VWS V14.00,2013-03-06 09:44:00,
2013-03-06 03:49:00,30.1,21.2,30.33,North,355,0.0,0.0,69,0.00,,,0.00,0.00,VWS V14.00,2013-03-06 09:49:00,
2013-03-06 03:54:00,30.0,21.1,30.33,North,355,0.0,0.0,69,0.00,,,0.00,0.00,VWS V14.00,2013-03-06 09:54:00,
2013-03-06 03:59:00,29.9,21.0,30.33,North,355,0.0,0.0,69,0.00,,,0.00,0.00,VWS V14.00,2013-03-06 09:59:00,
2013-03-06 04:00:00,28.7,20.8,30.35,North,355,0.0,0.0,72,0.00,,,0.00,0.00,VWS V14.00,2013-03-06 10:00:00,
2013-03-06 04:04:00,29.8,20.9,30.33,North,355,0.0,0.0,69,0.00,,,0.00,0.00,VWS V14.00,2013-03-06 10:04:00,
2013-03-06 04:09:00,29.7,20.8,30.32,North,355,0.0,0.0,69,0.00,,,0.00,0.00,VWS V14.00,2013-03-06 10:09:00,
2013-03-06 04:14:00,29.6,20.7,30.33,North,355,0.0,0.0,69,0.00,,,0.00,0.00,VWS V14.00,2013-03-06 10:14:00,
2013-03-06 04:19:00,29.5,20.6,30.33,North,355,0.0,0.0,69,0.00,,,0.00,0.00,VWS V14.00,2013-03-06 10:19:00,
2013-03-06 04:24:00,29.3,20.7,30.33,North,355,0.0,0.0,70,0.00,,,0.00,0.00,VWS V14.00,2013-03-06 10:24:00,
2013-03-06 04:29:00,29.3,20.7,30.33,North,355,0.0,0.0,70,0.00,,,0.00,0.00,VWS V14.00,2013-03-06 10:29:00,
2013-03-06 04:30:00,28.1,20.6,30.35,North,355,0.0,0.0,73,0.00,,,0.00,0.00,VWS V14.00,2013-03-06 10:30:00,
2013-03-06 04:34:00,29.2,21.0,30.33,North,355,0.0,0.0,71,0.00,,,0.00,0.00,VWS V14.00,2013-03-06 10:34:00,
2013-03-06 04:39:00,29.1,20.9,30.33,North,355,0.0,0.0,71,0.00,,,0.00,0.00,VWS V14.00,2013-03-06 10:39:00,
2013-03-06 04:44:00,29.0,20.8,30.34,North,355,0.0,0.0,71,0.00,,,0.00,0.00,VWS V14.00,2013-03-06 10:44:00,
2013-03-06 04:49:00,28.9,20.7,30.34,North,355,0.0,0.0,71,0.00,,,0.00,0.00,VWS V14.00,2013-03-06 10:49:00,
2013-03-06 04:54:00,28.8,20.6,30.34,North,355,0.0,0.0,71,0.00,,,0.00,0.00,VWS V14.00,2013-03-06 10:54:00,
2013-03-06 04:59:00,28.7,20.8,30.35,North,355,0.0,0.0,72,0.00,,,0.00,0.00,VWS V14.00,2013-03-06 10:59:00,
2013-03-06 05:00:00,27.3,20.1,30.36,North,355,0.0,0.0,74,0.00,,,0.00,0.00,VWS V14.00,2013-03-06 11:00:00,
2013-03-06 05:04:00,28.6,20.7,30.35,North,355,0.0,0.0,72,0.00,,,0.00,0.00,VWS V14.00,2013-03-06 11:04:00,
2013-03-06 05:09:00,28.5,20.6,30.35,North,355,0.0,0.0,72,0.00,,,0.00,0.00,VWS V14.00,2013-03-06 11:09:00,
2013-03-06 05:14:00,28.4,20.9,30.35,North,355,0.0,0.0,73,0.00,,,0.00,0.00,VWS V14.00,2013-03-06 11:14:00,
2013-03-06 05:19:00,28.3,20.8,30.35,North,355,0.0,0.0,73,0.00,,,0.00,0.00,VWS V14.00,2013-03-06 11:19:00,
2013-03-06 05:24:00,28.2,20.7,30.35,North,355,0.0,0.0,73,0.00,,,0.00,0.00,VWS V14.00,2013-03-06 11:24:00,
2013-03-06 05:29:00,28.0,20.5,30.35,North,355,0.0,0.0,73,0.00,,,0.00,0.00,VWS V14.00,2013-03-06 11:29:00,
2013-03-06 05:30:00,26.5,20.0,30.37,North,355,0.0,0.0,76,0.00,,,0.00,0.00,VWS V14.00,2013-03-06 11:30:00,
2013-03-06 05:34:00,27.9,20.4,30.35,North,355,0.0,0.0,73,0.00,,,0.00,0.00,VWS V14.00,2013-03-06 11:34:00,
2013-03-06 05:39:00,27.8,20.3,30.35,North,355,0.0,0.0,73,0.00,,,0.00,0.00,VWS V14.00,2013-03-06 11:39:00,
2013-03-06 05:44:00,27.6,20.4,30.35,North,355,0.0,0.0,74,0.00,,,0.00,0.00,VWS V14.00,2013-03-06 11:44:00,
2013-03-06 05:49:00,27.5,20.3,30.36,North,355,0.0,0.0,74,0.00,,,0.00,0.00,VWS V14.00,2013-03-06 11:49:00,
2013-03-06 05:54:00,27.4,20.2,30.36,North,355,0.0,0.0,74,0.00,,,0.00,0.00,VWS V14.00,2013-03-06 11:54:00,
2013-03-06 05:59:00,27.3,20.1,30.36,North,355,0.0,0.0,74,0.00,,,0.00,0.00,VWS V14.00,2013-03-06 11:59:00,
2013-03-06 06:00:00,26.1,19.9,30.38,North,355,0.0,0.0,77,0.00,,,0.00,12.00,VWS V14.00,2013-03-06 12:00:00,
2013-03-06 06:04:00,27.1,19.9,30.36,North,355,0.0,0.0,74,0.00,,,0.00,0.00,VWS V14.00,2013-03-06 12:04:00,
2013-03-06 06:09:00,27.0,20.1,30.37,North,355,0.0,0.0,75,0.00,,,0.00,0.00,VWS V14.00,2013-03-06 12:09:00,
2013-03-06 06:14:00,26.9,20.0,30.37,North,355,0.0,0.0,75,0.00,,,0.00,0.00,VWS V14.00,2013-03-06 12:14:00,
2013-03-06 06:19:00,26.7,20.2,30.37,North,355,0.0,0.0,76,0.00,,,0.00,0.00,VWS V14.00,2013-03-06 12:19:00,
2013-03-06 06:24:00,26.6,20.1,30.37,North,355,0.0,0.0,76,0.00,,,0.00,0.00,VWS V14.00,2013-03-06 12:24:00,
2013-03-06 06:29:00,26.5,20.0,30.37,North,355,0.0,0.0,76,0.00,,,0.00,0.00,VWS V14.00,2013-03-06 12:29:00,
2013-03-06 06:30:00,26.6,21.3,30.39,North,355,0.0,0.0,80,0.00,,,0.00,121.00,VWS V14.00,2013-03-06 12:30:00,
2013-03-06 06:34:00,26.4,19.9,30.37,North,355,0.0,0.0,76,0.00,,,0.00,0.00,VWS V14.00,2013-03-06 12:34:00,
2013-03-06 06:39:00,26.4,20.2,30.37,North,355,0.0,0.0,77,0.00,,,0.00,0.00,VWS V14.00,2013-03-06 12:39:00,
2013-03-06 06:44:00,26.3,20.1,30.37,North,355,0.0,0.0,77,0.00,,,0.00,0.00,VWS V14.00,2013-03-06 12:44:00,
2013-03-06 06:49:00,26.3,20.1,30.38,North,355,0.0,0.0,77,0.00,,,0.00,5.00,VWS V14.00,2013-03-06 12:49:00,
2013-03-06 06:54:00,26.2,20.0,30.38,North,355,0.0,0.0,77,0.00,,,0.00,9.00,VWS V14.00,2013-03-06 12:54:00,
2013-03-06 06:59:00,26.1,19.9,30.38,North,355,0.0,0.0,77,0.00,,,0.00,14.00,VWS V14.00,2013-03-06 12:59:00,
2013-03-06 07:00:00,30.2,25.7,30.40,North,355,0.0,0.0,83,0.00,,,0.00,225.00,VWS V14.00,2013-03-06 13:00:00,
2013-03-06 07:04:00,26.0,19.8,30.38,North,355,0.0,0.0,77,0.00,,,0.00,28.00,VWS V14.00,2013-03-06 13:04:00,
2013-03-06 07:09:00,26.0,20.1,30.38,North,355,0.0,0.0,78,0.00,,,0.00,40.00,VWS V14.00,2013-03-06 13:09:00,
2013-03-06 07:14:00,26.0,20.1,30.38,North,355,0.0,0.0,78,0.00,,,0.00,58.00,VWS V14.00,2013-03-06 13:14:00,
2013-03-06 07:19:00,26.0,20.1,30.38,North,355,0.0,0.0,78,0.00,,,0.00,69.00,VWS V14.00,2013-03-06 13:19:00,
2013-03-06 07:24:00,26.3,20.7,30.38,North,355,0.0,0.0,79,0.00,,,0.00,100.00,VWS V14.00,2013-03-06 13:24:00,
2013-03-06 07:29:00,26.6,21.3,30.39,North,355,0.0,0.0,80,0.00,,,0.00,121.00,VWS V14.00,2013-03-06 13:29:00,
2013-03-06 07:30:00,35.5,28.4,30.42,North,355,0.0,1.0,75,0.00,,,0.00,323.00,VWS V14.00,2013-03-06 13:30:00,
2013-03-06 07:34:00,27.0,21.7,30.39,North,355,0.0,0.0,80,0.00,,,0.00,125.00,VWS V14.00,2013-03-06 13:34:00,
2013-03-06 07:39:00,27.4,22.0,30.39,North,355,0.0,0.0,80,0.00,,,0.00,144.00,VWS V14.00,2013-03-06 13:39:00,
2013-03-06 07:44:00,27.8,22.7,30.39,North,355,0.0,0.0,81,0.00,,,0.00,167.00,VWS V14.00,2013-03-06 13:44:00,
2013-03-06 07:49:00,28.7,23.9,30.39,North,355,0.0,0.0,82,0.00,,,0.00,188.00,VWS V14.00,2013-03-06 13:49:00,
2013-03-06 07:54:00,29.4,24.6,30.40,North,355,0.0,0.0,82,0.00,,,0.00,207.00,VWS V14.00,2013-03-06 13:54:00,
2013-03-06 07:59:00,30.3,25.8,30.40,North,355,0.0,1.0,83,0.00,,,0.00,225.00,VWS V14.00,2013-03-06 13:59:00,
2013-03-06 08:00:00,41.4,28.2,30.42,NNE,19,0.0,6.0,59,0.00,,,0.00,432.00,VWS V14.00,2013-03-06 14:00:00,
2013-03-06 08:04:00,31.3,26.8,30.41,North,355,0.0,1.0,83,0.00,,,0.00,244.00,VWS V14.00,2013-03-06 14:04:00,
2013-03-06 08:09:00,32.2,27.3,30.41,North,355,0.0,1.0,82,0.00,,,0.00,264.00,VWS V14.00,2013-03-06 14:09:00,
2013-03-06 08:14:00,33.0,27.8,30.41,North,355,0.0,1.0,81,0.00,,,0.00,276.00,VWS V14.00,2013-03-06 14:14:00,
2013-03-06 08:19:00,33.8,28.0,30.41,North,355,0.0,1.0,79,0.00,,,0.00,290.00,VWS V14.00,2013-03-06 14:19:00,
2013-03-06 08:24:00,34.7,28.2,30.42,North,355,0.0,1.0,77,0.00,,,0.00,299.00,VWS V14.00,2013-03-06 14:24:00,
2013-03-06 08:29:00,35.6,28.1,30.42,North,355,0.0,0.0,74,0.00,,,0.00,323.00,VWS V14.00,2013-03-06 14:29:00,
2013-03-06 08:30:00,45.5,24.9,30.41,NE,55,0.0,9.0,44,0.00,,,0.00,543.00,VWS V14.00,2013-03-06 14:30:00,
2013-03-06 08:34:00,36.6,28.1,30.42,North,355,0.0,1.0,71,0.00,,,0.00,341.00,VWS V14.00,2013-03-06 14:34:00,
2013-03-06 08:39:00,37.5,28.6,30.42,North,355,0.0,3.0,70,0.00,,,0.00,352.00,VWS V14.00,2013-03-06 14:39:00,
2013-03-06 08:44:00,38.4,28.4,30.42,North,355,0.0,3.0,67,0.00,,,0.00,374.00,VWS V14.00,2013-03-06 14:44:00,
2013-03-06 08:49:00,39.3,28.5,30.42,NNE,24,0.0,3.0,65,0.00,,,0.00,394.00,VWS V14.00,2013-03-06 14:49:00,
2013-03-06 08:54:00,40.4,28.0,30.42,NNE,15,4.0,6.0,61,0.00,,,0.00,410.00,VWS V14.00,2013-03-06 14:54:00,
2013-03-06 08:59:00,41.4,27.8,30.42,NNE,20,1.0,1.0,58,0.00,,,0.00,432.00,VWS V14.00,2013-03-06 14:59:00,
2013-03-06 09:00:00,47.8,24.7,30.40,NE,42,3.0,7.0,40,0.00,,,0.00,631.00,VWS V14.00,2013-03-06 15:00:00,
2013-03-06 09:04:00,42.4,27.4,30.42,NNE,28,0.0,6.0,55,0.00,,,0.00,454.00,VWS V14.00,2013-03-06 15:04:00,
2013-03-06 09:09:00,43.1,26.7,30.42,ESE,109,0.0,6.0,52,0.00,,,0.00,464.00,VWS V14.00,2013-03-06 15:09:00,
2013-03-06 09:14:00,43.8,26.4,30.41,East,86,3.0,8.0,50,0.00,,,0.00,482.00,VWS V14.00,2013-03-06 15:14:00,
2013-03-06 09:19:00,44.4,26.0,30.41,ENE,74,5.0,9.0,48,0.00,,,0.00,501.00,VWS V14.00,2013-03-06 15:19:00,
2013-03-06 09:24:00,45.0,25.5,30.42,NE,55,3.0,9.0,46,0.00,,,0.00,524.00,VWS V14.00,2013-03-06 15:24:00,
2013-03-06 09:29:00,45.6,25.0,30.41,NE,55,0.0,0.0,44,0.00,,,0.00,552.00,VWS V14.00,2013-03-06 15:29:00,
2013-03-06 09:30:00,49.5,25.6,30.40,East,91,0.0,7.0,39,0.00,,,0.00,668.00,VWS V14.00,2013-03-06 15:30:00,
2013-03-06 09:34:00,46.1,24.9,30.41,NE,56,0.0,7.0,43,0.00,,,0.00,557.00,VWS V14.00,2013-03-06 15:34:00,
2013-03-06 09:39:00,46.4,25.1,30.41,ENE,67,4.0,7.0,43,0.00,,,0.00,550.00,VWS V14.00,2013-03-06 15:39:00,
2013-03-06 09:44:00,46.6,24.8,30.41,ENE,68,1.0,7.0,42,0.00,,,0.00,548.00,VWS V14.00,2013-03-06 15:44:00,
2013-03-06 09:49:00,47.0,25.1,30.40,NE,45,0.0,7.0,42,0.00,,,0.00,585.00,VWS V14.00,2013-03-06 15:49:00,
2013-03-06 09:54:00,47.4,24.9,30.40,ENE,76,2.0,7.0,41,0.00,,,0.00,613.00,VWS V14.00,2013-03-06 15:54:00,
2013-03-06 09:59:00,47.8,24.7,30.40,NNE,28,0.0,5.0,40,0.00,,,0.00,631.00,VWS V14.00,2013-03-06 15:59:00,
2013-03-06 10:00:00,51.4,23.3,30.40,ENE,66,3.0,7.0,33,0.00,,,0.00,729.00,VWS V14.00,2013-03-06 16:00:00,
2013-03-06 10:04:00,48.1,24.3,30.40,ENE,61,0.0,6.0,39,0.00,,,0.00,621.00,VWS V14.00,2013-03-06 16:04:00,
2013-03-06 10:09:00,48.4,24.6,30.40,NE,34,0.0,6.0,39,0.00,,,0.00,603.00,VWS V14.00,2013-03-06 16:09:00,
2013-03-06 10:14:00,48.5,24.1,30.41,East,87,0.0,7.0,38,0.00,,,0.00,612.00,VWS V14.00,2013-03-06 16:14:00,
2013-03-06 10:19:00,48.7,23.6,30.40,East,88,3.0,7.0,37,0.00,,,0.00,580.00,VWS V14.00,2013-03-06 16:19:00,
2013-03-06 10:24:00,48.8,23.7,30.40,East,88,0.0,7.0,37,0.00,,,0.00,642.00,VWS V14.00,2013-03-06 16:24:00,
2013-03-06 10:29:00,49.6,25.7,30.40,East,91,0.0,0.0,39,0.00,,,0.00,666.00,VWS V14.00,2013-03-06 16:29:00,
2013-03-06 10:30:00,52.6,22.9,30.39,ENE,75,0.0,11.0,31,0.00,,,0.00,643.00,VWS V14.00,2013-03-06 16:30:00,
2013-03-06 10:34:00,49.8,23.9,30.40,East,101,0.0,7.0,36,0.00,,,0.00,701.00,VWS V14.00,2013-03-06 16:34:00,
2013-03-06 10:39:00,50.3,25.7,30.40,East,92,1.0,7.0,38,0.00,,,0.00,696.00,VWS V14.00,2013-03-06 16:39:00,
2013-03-06 10:44:00,50.5,24.6,30.40,ENE,78,0.0,7.0,36,0.00,,,0.00,642.00,VWS V14.00,2013-03-06 16:44:00,
2013-03-06 10:49:00,50.7,24.1,30.40,ENE,69,0.0,7.0,35,0.00,,,0.00,689.00,VWS V14.00,2013-03-06 16:49:00,
2013-03-06 10:54:00,51.2,25.2,30.40,ENE,69,0.0,7.0,36,0.00,,,0.00,733.00,VWS V14.00,2013-03-06 16:54:00,
2013-03-06 10:59:00,51.3,23.2,30.39,ENE,66,0.0,3.0,33,0.00,,,0.00,728.00,VWS V14.00,2013-03-06 16:59:00,
2013-03-06 11:00:00,54.5,23.7,30.37,ESE,117,0.0,7.0,30,0.00,,,0.00,719.00,VWS V14.00,2013-03-06 17:00:00,
2013-03-06 11:04:00,51.1,23.7,30.39,SSW,198,0.0,7.0,34,0.00,,,0.00,724.00,VWS V14.00,2013-03-06 17:04:00,
2013-03-06 11:09:00,51.7,23.5,30.39,ENE,71,0.0,7.0,33,0.00,,,0.00,677.00,VWS V14.00,2013-03-06 17:09:00,
2013-03-06 11:14:00,51.7,22.1,30.39,ESE,105,1.0,11.0,31,0.00,,,0.00,649.00,VWS V14.00,2013-03-06 17:14:00,
2013-03-06 11:19:00,52.1,23.2,30.39,East,87,1.0,11.0,32,0.00,,,0.00,621.00,VWS V14.00,2013-03-06 17:19:00,
2013-03-06 11:24:00,52.3,21.8,30.39,East,98,0.0,11.0,30,0.00,,,0.00,599.00,VWS V14.00,2013-03-06 17:24:00,
2013-03-06 11:29:00,52.6,22.9,30.39,ENE,75,0.0,0.0,31,0.00,,,0.00,643.00,VWS V14.00,2013-03-06 17:29:00,
2013-03-06 11:30:00,57.0,23.4,30.35,East,94,0.0,8.0,27,0.00,,,0.00,686.00,VWS V14.00,2013-03-06 17:30:00,
2013-03-06 11:34:00,53.6,23.7,30.38,ENE,63,3.0,5.0,31,0.00,,,0.00,715.00,VWS V14.00,2013-03-06 17:34:00,
2013-03-06 11:39:00,53.8,22.3,30.38,East,84,1.0,5.0,29,0.00,,,0.00,766.00,VWS V14.00,2013-03-06 17:39:00,
2013-03-06 11:44:00,53.6,24.5,30.38,East,84,3.0,5.0,32,0.00,,,0.00,772.00,VWS V14.00,2013-03-06 17:44:00,
2013-03-06 11:49:00,53.8,21.5,30.37,ESE,117,4.0,7.0,28,0.00,,,0.00,766.00,VWS V14.00,2013-03-06 17:49:00,
2013-03-06 11:54:00,54.4,23.6,30.37,ESE,117,0.0,7.0,30,0.00,,,0.00,758.00,VWS V14.00,2013-03-06 17:54:00,
2013-03-06 11:59:00,54.6,23.8,30.37,ESE,117,0.0,1.0,30,0.00,,,0.00,719.00,VWS V14.00,2013-03-06 17:59:00,
2013-03-06 12:00:00,57.8,22.2,30.34,NE,51,4.0,8.0,25,0.00,,,0.00,798.00,VWS V14.00,2013-03-06 18:00:00,
2013-03-06 12:04:00,55.8,23.2,30.36,East,92,4.0,8.0,28,0.00,,,0.00,673.00,VWS V14.00,2013-03-06 18:04:00,
2013-03-06 12:09:00,56.1,23.5,30.36,East,86,0.0,8.0,28,0.00,,,0.00,596.00,VWS V14.00,2013-03-06 18:09:00,
2013-03-06 12:14:00,56.0,22.5,30.35,NNW,329,0.0,8.0,27,0.00,,,0.00,552.00,VWS V14.00,2013-03-06 18:14:00,
2013-03-06 12:19:00,56.3,22.8,30.35,NNW,330,0.0,8.0,27,0.00,,,0.00,543.00,VWS V14.00,2013-03-06 18:19:00,
2013-03-06 12:24:00,56.6,23.0,30.35,NE,54,1.0,8.0,27,0.00,,,0.00,589.00,VWS V14.00,2013-03-06 18:24:00,
2013-03-06 12:29:00,57.1,23.5,30.34,East,94,0.0,0.0,27,0.00,,,0.00,686.00,VWS V14.00,2013-03-06 18:29:00,
2013-03-06 12:30:00,58.5,18.7,30.30,NNW,348,2.0,6.0,21,0.00,,,0.00,687.00,VWS V14.00,2013-03-06 18:30:00,
2013-03-06 12:34:00,57.1,23.5,30.34,NE,34,1.0,6.0,27,0.00,,,0.00,763.00,VWS V14.00,2013-03-06 18:34:00,
2013-03-06 12:39:00,57.0,21.5,30.34,NNE,15,0.0,8.0,25,0.00,,,0.00,796.00,VWS V14.00,2013-03-06 18:39:00,
2013-03-06 12:44:00,57.4,20.9,30.34,NE,49,4.0,8.0,24,0.00,,,0.00,800.00,VWS V14.00,2013-03-06 18:44:00,
2013-03-06 12:49:00,57.8,22.2,30.34,NE,49,1.0,8.0,25,0.00,,,0.00,793.00,VWS V14.00,2013-03-06 18:49:00,
2013-03-06 12:54:00,57.3,18.8,30.34,NE,49,0.0,8.0,22,0.00,,,0.00,779.00,VWS V14.00,2013-03-06 18:54:00,
2013-03-06 12:59:00,58.0,22.4,30.34,ENE,64,3.0,5.0,25,0.00,,,0.00,798.00,VWS V14.00,2013-03-06 18:59:00,
2013-03-06 13:00:00,59.8,18.7,30.27,NE,50,0.0,6.0,20,0.00,,,0.00,640.00,VWS V14.00,2013-03-06 19:00:00,
2013-03-06 13:04:00,58.3,21.7,30.33,ENE,63,1.0,5.0,24,0.00,,,0.00,816.00,VWS V14.00,2013-03-06 19:04:00,
2013-03-06 13:09:00,58.4,18.6,30.32,NE,55,4.0,5.0,21,0.00,,,0.00,715.00,VWS V14.00,2013-03-06 19:09:00,
2013-03-06 13:14:00,58.0,18.3,30.32,NE,55,0.0,5.0,21,0.00,,,0.00,619.00,VWS V14.00,2013-03-06 19:14:00,
2013-03-06 13:19:00,58.1,18.4,30.31,NE,55,0.0,5.0,21,0.00,,,0.00,691.00,VWS V14.00,2013-03-06 19:19:00,
2013-03-06 13:24:00,58.1,18.4,30.30,ENE,57,2.0,5.0,21,0.00,,,0.00,710.00,VWS V14.00,2013-03-06 19:24:00,
2013-03-06 13:29:00,58.4,18.6,30.30,NNW,348,2.0,3.0,21,0.00,,,0.00,687.00,VWS V14.00,2013-03-06 19:29:00,
2013-03-06 13:30:00,60.4,20.3,30.25,South,189,2.0,6.0,21,0.00,,,0.00,534.00,VWS V14.00,2013-03-06 19:30:00,
2013-03-06 13:34:00,58.1,18.4,30.30,NNW,348,0.0,3.0,21,0.00,,,0.00,687.00,VWS V14.00,2013-03-06 19:34:00,
2013-03-06 13:39:00,58.6,19.9,30.29,ENE,74,1.0,6.0,22,0.00,,,0.00,722.00,VWS V14.00,2013-03-06 19:39:00,
2013-03-06 13:44:00,59.5,21.7,30.28,ENE,74,4.0,6.0,23,0.00,,,0.00,719.00,VWS V14.00,2013-03-06 19:44:00,
2013-03-06 13:49:00,59.7,20.8,30.28,NE,36,0.0,6.0,22,0.00,,,0.00,591.00,VWS V14.00,2013-03-06 19:49:00,
2013-03-06 13:54:00,59.4,18.3,30.28,NE,35,0.0,6.0,20,0.00,,,0.00,679.00,VWS V14.00,2013-03-06 19:54:00,
2013-03-06 13:59:00,59.8,18.7,30.27,NE,50,0.0,0.0,20,0.00,,,0.00,640.00,VWS V14.00,2013-03-06 19:59:00,
2013-03-06 14:00:00,61.3,19.9,30.23,SE,126,0.0,8.0,20,0.00,,,0.00,503.00,VWS V14.00,2013-03-06 20:00:00,
2013-03-06 14:04:00,60.4,20.3,30.27,NE,36,0.0,3.0,21,0.00,,,0.00,633.00,VWS V14.00,2013-03-06 20:04:00,
2013-03-06 14:09:00,60.1,21.1,30.27,NE,55,4.0,5.0,22,0.00,,,0.00,613.00,VWS V14.00,2013-03-06 20:09:00,
2013-03-06 14:14:00,61.0,23.0,30.26,NNE,28,0.0,5.0,23,0.00,,,0.00,589.00,VWS V14.00,2013-03-06 20:14:00,
2013-03-06 14:19:00,61.1,19.8,30.26,SE,134,0.0,6.0,20,0.00,,,0.00,571.00,VWS V14.00,2013-03-06 20:19:00,
2013-03-06 14:24:00,60.7,20.6,30.26,South,180,2.0,6.0,21,0.00,,,0.00,548.00,VWS V14.00,2013-03-06 20:24:00,
2013-03-06 14:29:00,60.4,20.3,30.25,South,189,3.0,3.0,21,0.00,,,0.00,552.00,VWS V14.00,2013-03-06 20:29:00,
2013-03-06 14:30:00,62.0,19.3,30.23,ESE,106,5.0,8.0,19,0.00,,,0.00,348.00,VWS V14.00,2013-03-06 20:30:00,
2013-03-06 14:34:00,60.7,19.4,30.25,ESE,108,7.0,8.0,20,0.00,,,0.00,545.00,VWS V14.00,2013-03-06 20:34:00,
2013-03-06 14:39:00,61.2,18.6,30.25,ENE,76,4.0,8.0,19,0.00,,,0.00,508.00,VWS V14.00,2013-03-06 20:39:00,
2013-03-06 14:44:00,61.5,17.6,30.24,NNE,17,5.0,8.0,18,0.00,,,0.00,489.00,VWS V14.00,2013-03-06 20:44:00,
2013-03-06 14:49:00,61.2,17.4,30.23,SE,136,2.0,8.0,18,0.00,,,0.00,515.00,VWS V14.00,2013-03-06 20:49:00,
2013-03-06 14:54:00,61.2,18.6,30.23,ESE,109,0.0,8.0,19,0.00,,,0.00,520.00,VWS V14.00,2013-03-06 20:54:00,
2013-03-06 14:59:00,61.3,19.9,30.23,SE,126,0.0,1.0,20,0.00,,,0.00,512.00,VWS V14.00,2013-03-06 20:59:00,
2013-03-06 15:00:00,60.8,19.5,30.21,SE,135,2.0,8.0,20,0.00,,,0.00,232.00,VWS V14.00,2013-03-06 21:00:00,
2013-03-06 15:04:00,61.3,18.7,30.23,ESE,103,0.0,8.0,19,0.00,,,0.00,432.00,VWS V14.00,2013-03-06 21:04:00,
2013-03-06 15:09:00,61.3,19.9,30.23,SE,127,5.0,8.0,20,0.00,,,0.00,598.00,VWS V14.00,2013-03-06 21:09:00,
2013-03-06 15:14:00,61.5,20.1,30.23,East,83,2.0,8.0,20,0.00,,,0.00,350.00,VWS V14.00,2013-03-06 21:14:00,
2013-03-06 15:19:00,61.8,19.1,30.23,SE,132,5.0,8.0,19,0.00,,,0.00,717.00,VWS V14.00,2013-03-06 21:19:00,
2013-03-06 15:24:00,62.0,19.3,30.23,East,99,1.0,8.0,19,0.00,,,0.00,415.00,VWS V14.00,2013-03-06 21:24:00,
2013-03-06 15:29:00,62.0,19.3,30.23,ESE,108,4.0,5.0,19,0.00,,,0.00,348.00,VWS V14.00,2013-03-06 21:29:00,
2013-03-06 15:30:00,60.2,16.6,30.20,SE,126,2.0,7.0,18,0.00,,,0.00,179.00,VWS V14.00,2013-03-06 21:30:00,
2013-03-06 15:34:00,61.8,19.1,30.23,SE,132,2.0,8.0,19,0.00,,,0.00,285.00,VWS V14.00,2013-03-06 21:34:00,
2013-03-06 15:39:00,61.6,19.0,30.22,SE,128,0.0,8.0,19,0.00,,,0.00,243.00,VWS V14.00,2013-03-06 21:39:00,
2013-03-06 15:44:00,61.3,18.7,30.22,SE,128,0.0,8.0,19,0.00,,,0.00,255.00,VWS V14.00,2013-03-06 21:44:00,
2013-03-06 15:49:00,61.1,18.5,30.21,SE,128,0.0,8.0,19,0.00,,,0.00,255.00,VWS V14.00,2013-03-06 21:49:00,
2013-03-06 15:54:00,60.8,20.6,30.21,SE,129,2.0,8.0,21,0.00,,,0.00,239.00,VWS V14.00,2013-03-06 21:54:00,
2013-03-06 15:59:00,60.8,19.5,30.21,SE,135,2.0,2.0,20,0.00,,,0.00,232.00,VWS V14.00,2013-03-06 21:59:00,
2013-03-06 16:00:00,59.8,18.7,30.20,SE,132,4.0,7.0,20,0.00,,,0.00,128.00,VWS V14.00,2013-03-06 22:00:00,
2013-03-06 16:04:00,60.9,19.6,30.20,SE,142,0.0,4.0,20,0.00,,,0.00,225.00,VWS V14.00,2013-03-06 22:04:00,
2013-03-06 16:09:00,60.9,18.4,30.20,SSE,150,1.0,6.0,19,0.00,,,0.00,221.00,VWS V14.00,2013-03-06 22:09:00,
2013-03-06 16:14:00,60.7,17.0,30.20,ESE,115,0.0,6.0,18,0.00,,,0.00,218.00,VWS V14.00,2013-03-06 22:14:00,
2013-03-06 16:19:00,60.6,16.9,30.20,ESE,121,4.0,7.0,18,0.00,,,0.00,190.00,VWS V14.00,2013-03-06 22:19:00,
2013-03-06 16:24:00,60.2,16.6,30.19,SE,125,2.0,7.0,18,0.00,,,0.00,179.00,VWS V14.00,2013-03-06 22:24:00,
2013-03-06 16:29:00,60.2,16.6,30.20,SE,126,0.0,2.0,18,0.00,,,0.00,179.00,VWS V14.00,2013-03-06 22:29:00,
2013-03-06 16:30:00,59.0,19.1,30.19,ESE,110,2.0,6.0,21,0.00,,,0.00,67.00,VWS V14.00,2013-03-06 22:30:00,
2013-03-06 16:34:00,60.1,17.7,30.20,SE,126,4.0,6.0,19,0.00,,,0.00,213.00,VWS V14.00,2013-03-06 22:34:00,
2013-03-06 16:39:00,60.2,17.8,30.20,SE,128,2.0,6.0,19,0.00,,,0.00,220.00,VWS V14.00,2013-03-06 22:39:00,
2013-03-06 16:44:00,60.2,16.6,30.20,SE,128,4.0,7.0,18,0.00,,,0.00,172.00,VWS V14.00,2013-03-06 22:44:00,
2013-03-06 16:49:00,60.0,17.6,30.20,SE,129,1.0,7.0,19,0.00,,,0.00,148.00,VWS V14.00,2013-03-06 22:49:00,
2013-03-06 16:54:00,59.9,19.9,30.20,SE,129,0.0,7.0,21,0.00,,,0.00,118.00,VWS V14.00,2013-03-06 22:54:00,
2013-03-06 16:59:00,59.8,18.7,30.20,SE,132,1.0,4.0,20,0.00,,,0.00,128.00,VWS V14.00,2013-03-06 22:59:00,
2013-03-06 17:00:00,58.3,20.7,30.19,ESE,116,4.0,5.0,23,0.00,,,0.00,32.00,VWS V14.00,2013-03-06 23:00:00,
2013-03-06 17:04:00,59.7,18.6,30.19,SE,133,0.0,6.0,20,0.00,,,0.00,137.00,VWS V14.00,2013-03-06 23:04:00,
2013-03-06 17:09:00,59.6,19.6,30.19,SE,133,0.0,6.0,21,0.00,,,0.00,118.00,VWS V14.00,2013-03-06 23:09:00,
2013-03-06 17:14:00,59.5,18.4,30.19,SE,131,0.0,6.0,20,0.00,,,0.00,93.00,VWS V14.00,2013-03-06 23:14:00,
2013-03-06 17:19:00,59.4,19.5,30.19,SE,131,0.0,6.0,21,0.00,,,0.00,81.00,VWS V14.00,2013-03-06 23:19:00,
2013-03-06 17:24:00,59.2,18.2,30.19,SE,131,2.0,6.0,20,0.00,,,0.00,63.00,VWS V14.00,2013-03-06 23:24:00,
2013-03-06 17:29:00,59.0,19.1,30.19,ESE,111,4.0,4.0,21,0.00,,,0.00,67.00,VWS V14.00,2013-03-06 23:29:00,
2013-03-06 17:30:00,57.3,21.8,30.18,SE,136,0.0,6.0,25,0.00,,,0.00,0.00,VWS V14.00,2013-03-06 23:30:00,
2013-03-06 17:34:00,58.9,20.1,30.19,ESE,111,0.0,4.0,22,0.00,,,0.00,62.00,VWS V14.00,2013-03-06 23:34:00,
2013-03-06 17:39:00,58.7,18.9,30.19,ESE,115,0.0,5.0,21,0.00,,,0.00,51.00,VWS V14.00,2013-03-06 23:39:00,
2013-03-06 17:44:00,58.6,19.9,30.19,ESE,114,0.0,5.0,22,0.00,,,0.00,54.00,VWS V14.00,2013-03-06 23:44:00,
2013-03-06 17:49:00,58.6,19.9,30.19,ESE,115,0.0,5.0,22,0.00,,,0.00,56.00,VWS V14.00,2013-03-06 23:49:00,
2013-03-06 17:54:00,58.5,20.9,30.19,ESE,114,0.0,5.0,23,0.00,,,0.00,47.00,VWS V14.00,2013-03-06 23:54:00,
2013-03-06 17:59:00,58.3,20.7,30.19,ESE,116,2.0,4.0,23,0.00,,,0.00,32.00,VWS V14.00,2013-03-06 23:59:00,
2013-03-06 18:00:00,55.9,21.5,30.19,SE,135,0.0,5.0,26,0.00,,,0.00,0.00,VWS V14.00,2013-03-07 00:00:00,
2013-03-06 18:04:00,58.2,20.6,30.19,SE,140,2.0,6.0,23,0.00,,,0.00,23.00,VWS V14.00,2013-03-07 00:04:00,
2013-03-06 18:09:00,58.0,20.4,30.19,SE,136,0.0,6.0,23,0.00,,,0.00,16.00,VWS V14.00,2013-03-07 00:09:00,
2013-03-06 18:14:00,57.9,21.4,30.18,SE,136,0.0,6.0,24,0.00,,,0.00,12.00,VWS V14.00,2013-03-07 00:14:00,
2013-03-06 18:19:00,57.7,21.2,30.19,SE,136,0.0,6.0,24,0.00,,,0.00,11.00,VWS V14.00,2013-03-07 00:19:00,
2013-03-06 18:24:00,57.5,22.0,30.18,SE,136,0.0,6.0,25,0.00,,,0.00,5.00,VWS V14.00,2013-03-07 00:24:00,
2013-03-06 18:29:00,57.3,21.8,30.18,SE,137,0.0,0.0,25,0.00,,,0.00,0.00,VWS V14.00,2013-03-07 00:29:00,
2013-03-06 18:30:00,54.8,21.5,30.19,ESE,120,0.0,5.0,27,0.00,,,0.00,0.00,VWS V14.00,2013-03-07 00:30:00,
2013-03-06 18:34:00,57.0,20.6,30.19,SE,136,0.0,5.0,24,0.00,,,0.00,0.00,VWS V14.00,2013-03-07 00:34:00,
2013-03-06 18:39:00,56.8,21.4,30.19,SE,136,0.0,5.0,25,0.00,,,0.00,0.00,VWS V14.00,2013-03-07 00:39:00,
2013-03-06 18:44:00,56.6,21.2,30.19,SE,137,0.0,5.0,25,0.00,,,0.00,0.00,VWS V14.00,2013-03-07 00:44:00,
2013-03-06 18:49:00,56.3,21.0,30.19,SE,137,0.0,5.0,25,0.00,,,0.00,0.00,VWS V14.00,2013-03-07 00:49:00,
2013-03-06 18:54:00,56.1,21.7,30.19,SE,135,0.0,5.0,26,0.00,,,0.00,0.00,VWS V14.00,2013-03-07 00:54:00,
2013-03-06 18:59:00,55.9,21.5,30.19,SE,135,0.0,5.0,26,0.00,,,0.00,0.00,VWS V14.00,2013-03-07 00:59:00,
2013-03-06 19:00:00,53.8,22.3,30.18,ESE,122,0.0,6.0,29,0.00,,,0.00,0.00,VWS V14.00,2013-03-07 01:00:00,
2013-03-06 19:04:00,55.7,21.4,30.19,SE,135,0.0,2.0,26,0.00,,,0.00,0.00,VWS V14.00,2013-03-07 01:04:00,
2013-03-06 19:09:00,55.5,22.1,30.18,ESE,120,0.0,5.0,27,0.00,,,0.00,0.00,VWS V14.00,2013-03-07 01:09:00,
2013-03-06 19:14:00,55.3,21.9,30.19,ESE,119,0.0,5.0,27,0.00,,,0.00,0.00,VWS V14.00,2013-03-07 01:14:00,
2013-03-06 19:19:00,55.1,21.7,30.19,ESE,120,0.0,5.0,27,0.00,,,0.00,0.00,VWS V14.00,2013-03-07 01:19:00,
2013-03-06 19:24:00,55.0,21.6,30.19,ESE,120,0.0,5.0,27,0.00,,,0.00,0.00,VWS V14.00,2013-03-07 01:24:00,
2013-03-06 19:29:00,54.8,21.5,30.19,ESE,120,0.0,5.0,27,0.00,,,0.00,0.00,VWS V14.00,2013-03-07 01:29:00,
2013-03-06 19:30:00,52.7,22.2,30.17,SE,132,2.0,5.0,30,0.00,,,0.00,0.00,VWS V14.00,2013-03-07 01:30:00,
2013-03-06 19:34:00,54.7,22.3,30.19,ESE,120,0.0,2.0,28,0.00,,,0.00,0.00,VWS V14.00,2013-03-07 01:34:00,
2013-03-06 19:39:00,54.5,22.1,30.20,ESE,120,0.0,2.0,28,0.00,,,0.00,0.00,VWS V14.00,2013-03-07 01:39:00,
2013-03-06 19:44:00,54.4,22.0,30.19,ESE,121,0.0,4.0,28,0.00,,,0.00,0.00,VWS V14.00,2013-03-07 01:44:00,
2013-03-06 19:49:00,54.2,22.6,30.19,ESE,121,0.0,4.0,29,0.00,,,0.00,0.00,VWS V14.00,2013-03-07 01:49:00,
2013-03-06 19:54:00,54.0,22.5,30.19,ESE,121,0.0,4.0,29,0.00,,,0.00,0.00,VWS V14.00,2013-03-07 01:54:00,
2013-03-06 19:59:00,53.8,22.3,30.18,ESE,122,0.0,6.0,29,0.00,,,0.00,0.00,VWS V14.00,2013-03-07 01:59:00,
2013-03-06 20:00:00,51.9,22.2,30.16,SE,134,0.0,5.0,31,0.00,,,0.00,0.00,VWS V14.00,2013-03-07 02:00:00,
2013-03-06 20:04:00,53.7,22.2,30.18,SE,133,0.0,5.0,29,0.00,,,0.00,0.00,VWS V14.00,2013-03-07 02:04:00,
2013-03-06 20:09:00,53.5,22.9,30.18,SE,134,0.0,5.0,30,0.00,,,0.00,0.00,VWS V14.00,2013-03-07 02:09:00,
2013-03-06 20:14:00,53.3,22.7,30.17,SE,134,0.0,5.0,30,0.00,,,0.00,0.00,VWS V14.00,2013-03-07 02:14:00,
2013-03-06 20:19:00,53.1,22.5,30.17,SE,132,0.0,5.0,30,0.00,,,0.00,0.00,VWS V14.00,2013-03-07 02:19:00,
2013-03-06 20:24:00,52.9,22.3,30.17,SE,132,1.0,5.0,30,0.00,,,0.00,0.00,VWS V14.00,2013-03-07 02:24:00,
2013-03-06 20:29:00,52.7,22.2,30.17,SE,132,2.0,5.0,30,0.00,,,0.00,0.00,VWS V14.00,2013-03-07 02:29:00,
2013-03-06 20:30:00,51.3,23.2,30.17,SSE,160,1.0,6.0,33,0.00,,,0.00,0.00,VWS V14.00,2013-03-07 02:30:00,
2013-03-06 20:34:00,52.6,22.9,30.17,SE,132,4.0,4.0,31,0.00,,,0.00,0.00,VWS V14.00,2013-03-07 02:34:00,
2013-03-06 20:39:00,52.4,22.7,30.17,SE,132,0.0,5.0,31,0.00,,,0.00,0.00,VWS V14.00,2013-03-07 02:39:00,
2013-03-06 20:44:00,52.3,22.6,30.17,SE,133,0.0,5.0,31,0.00,,,0.00,0.00,VWS V14.00,2013-03-07 02:44:00,
2013-03-06 20:49:00,52.2,22.5,30.17,SE,133,0.0,5.0,31,0.00,,,0.00,0.00,VWS V14.00,2013-03-07 02:49:00,
2013-03-06 20:54:00,52.0,22.3,30.16,SE,134,0.0,5.0,31,0.00,,,0.00,0.00,VWS V14.00,2013-03-07 02:54:00,
2013-03-06 20:59:00,51.9,22.2,30.16,SE,134,0.0,0.0,31,0.00,,,0.00,0.00,VWS V14.00,2013-03-07 02:59:00,
2013-03-06 21:00:00,50.3,23.7,30.17,SE,133,0.0,6.0,35,0.00,,,0.00,0.00,VWS V14.00,2013-03-07 03:00:00,
2013-03-06 21:04:00,51.8,22.9,30.16,SE,134,2.0,4.0,32,0.00,,,0.00,0.00,VWS V14.00,2013-03-07 03:04:00,
2013-03-06 21:09:00,51.6,22.7,30.17,SE,134,0.0,4.0,32,0.00,,,0.00,0.00,VWS V14.00,2013-03-07 03:09:00,
2013-03-06 21:14:00,51.5,22.6,30.17,SE,134,0.0,4.0,32,0.00,,,0.00,0.00,VWS V14.00,2013-03-07 03:14:00,
2013-03-06 21:19:00,51.4,22.5,30.17,SE,136,1.0,6.0,32,0.00,,,0.00,0.00,VWS V14.00,2013-03-07 03:19:00,
2013-03-06 21:24:00,51.4,23.3,30.17,SSE,160,0.0,6.0,33,0.00,,,0.00,0.00,VWS V14.00,2013-03-07 03:24:00,
2013-03-06 21:29:00,51.3,23.2,30.17,SSE,159,1.0,1.0,33,0.00,,,0.00,0.00,VWS V14.00,2013-03-07 03:29:00,
2013-03-06 21:30:00,49.3,23.5,30.16,SE,146,0.0,7.0,36,0.00,,,0.00,0.00,VWS V14.00,2013-03-07 03:30:00,
2013-03-06 21:34:00,51.1,23.7,30.17,SSE,159,0.0,2.0,34,0.00,,,0.00,0.00,VWS V14.00,2013-03-07 03:34:00,
2013-03-06 21:39:00,51.0,23.6,30.17,SSE,159,0.0,2.0,34,0.00,,,0.00,0.00,VWS V14.00,2013-03-07 03:39:00,
2013-03-06 21:44:00,50.7,24.1,30.17,SSE,159,0.0,2.0,35,0.00,,,0.00,0.00,VWS V14.00,2013-03-07 03:44:00,
2013-03-06 21:49:00,50.5,23.9,30.16,SE,144,1.0,6.0,35,0.00,,,0.00,0.00,VWS V14.00,2013-03-07 03:49:00,
2013-03-06 21:54:00,50.4,23.8,30.16,SE,133,2.0,6.0,35,0.00,,,0.00,0.00,VWS V14.00,2013-03-07 03:54:00,
2013-03-06 21:59:00,50.3,23.7,30.17,SE,133,0.0,0.0,35,0.00,,,0.00,0.00,VWS V14.00,2013-03-07 03:59:00,
2013-03-06 22:00:00,49.0,23.9,30.16,SSE,148,0.0,5.0,37,0.00,,,0.00,0.00,VWS V14.00,2013-03-07 04:00:00,
2013-03-06 22:04:00,50.1,23.5,30.16,SSE,150,0.0,5.0,35,0.00,,,0.00,0.00,VWS V14.00,2013-03-07 04:04:00,
2013-03-06 22:09:00,50.0,24.1,30.16,SSE,148,1.0,5.0,36,0.00,,,0.00,0.00,VWS V14.00,2013-03-07 04:09:00,
2013-03-06 22:14:00,49.8,23.9,30.16,SE,136,2.0,7.0,36,0.00,,,0.00,0.00,VWS V14.00,2013-03-07 04:14:00,
2013-03-06 22:19:00,49.6,23.8,30.16,South,185,0.0,7.0,36,0.00,,,0.00,0.00,VWS V14.00,2013-03-07 04:19:00,
2013-03-06 22:24:00,49.4,23.6,30.16,SE,138,0.0,7.0,36,0.00,,,0.00,0.00,VWS V14.00,2013-03-07 04:24:00,
2013-03-06 22:29:00,49.3,23.5,30.16,SE,146,0.0,7.0,36,0.00,,,0.00,0.00,VWS V14.00,2013-03-07 04:29:00,
2013-03-06 22:30:00,47.1,24.0,30.16,SSE,154,0.0,5.0,40,0.00,,,0.00,0.00,VWS V14.00,2013-03-07 04:30:00,
2013-03-06 22:34:00,49.2,23.4,30.15,SSE,150,0.0,5.0,36,0.00,,,0.00,0.00,VWS V14.00,2013-03-07 04:34:00,
2013-03-06 22:39:00,49.0,23.9,30.16,SSE,147,0.0,5.0,37,0.00,,,0.00,0.00,VWS V14.00,2013-03-07 04:39:00,
2013-03-06 22:44:00,49.0,23.9,30.16,SSE,148,0.0,5.0,37,0.00,,,0.00,0.00,VWS V14.00,2013-03-07 04:44:00,
2013-03-06 22:49:00,49.0,23.9,30.16,SSE,148,0.0,5.0,37,0.00,,,0.00,0.00,VWS V14.00,2013-03-07 04:49:00,
2013-03-06 22:54:00,49.0,23.9,30.16,SSE,148,0.0,5.0,37,0.00,,,0.00,0.00,VWS V14.00,2013-03-07 04:54:00,
2013-03-06 22:59:00,49.0,23.9,30.16,SSE,148,0.0,5.0,37,0.00,,,0.00,0.00,VWS V14.00,2013-03-07 04:59:00,
2013-03-06 23:00:00,49.0,23.9,30.16,SSE,148,0.0,0.0,37,0.00,,,0.00,0.00,VWS V14.00,2013-03-07 05:00:00,
2013-03-06 23:01:00,49.0,23.9,30.16,SSE,148,0.0,0.0,37,0.00,,,0.00,0.00,VWS V14.00,2013-03-07 05:01:00,
2013-03-06 23:06:00,49.0,23.9,30.16,SSE,148,0.0,0.0,37,0.00,,,0.00,0.00,VWS V14.00,2013-03-07 05:06:00,
2013-03-06 23:11:00,47.8,24.7,30.15,SSE,150,0.0,0.0,40,0.00,,,0.00,0.00,VWS V14.00,2013-03-07 05:11:00,
2013-03-06 23:16:00,47.5,24.4,30.16,SSE,150,0.0,0.0,40,0.00,,,0.00,0.00,VWS V14.00,2013-03-07 05:16:00,
2013-03-06 23:21:00,47.3,23.6,30.15,SSE,154,0.0,5.0,39,0.00,,,0.00,0.00,VWS V14.00,2013-03-07 05:21:00,
2013-03-06 23:26:00,47.2,23.5,30.15,SSE,154,0.0,5.0,39,0.00,,,0.00,0.00,VWS V14.00,2013-03-07 05:26:00,
2013-03-06 23:30:00,45.7,23.4,30.14,SSE,153,0.0,1.0,41,0.00,,,0.00,0.00,VWS V14.00,2013-03-07 05:30:00,
2013-03-06 23:31:00,47.0,24.0,30.16,SSE,154,0.0,0.0,40,0.00,,,0.00,0.00,VWS V14.00,2013-03-07 05:31:00,
2013-03-06 23:36:00,46.9,23.9,30.16,SSE,154,0.0,0.0,40,0.00,,,0.00,0.00,VWS V14.00,2013-03-07 05:36:00,
2013-03-06 23:41:00,46.8,23.2,30.15,SSE,154,0.0,1.0,39,0.00,,,0.00,0.00,VWS V14.00,2013-03-07 05:41:00,
2013-03-06 23:46:00,46.8,23.2,30.16,SSE,154,0.0,1.0,39,0.00,,,0.00,0.00,VWS V14.00,2013-03-07 05:46:00,
2013-03-06 23:51:00,46.7,23.7,30.16,SSE,154,0.0,1.0,40,0.00,,,0.00,0.00,VWS V14.00,2013-03-07 05:51:00,
2013-03-06 23:56:00,46.6,23.6,30.15,SSE,154,0.0,1.0,40,0.00,,,0.00,0.00,VWS V14.00,2013-03-07 05:56:00,